Time,TemperatureF,DewpointF,PressureIn,WindDirection,WindDirectionDegrees,WindSpeedMPH,WindSpeedGustMPH,Humidity,HourlyPrecipIn,Conditions,Clouds,dailyrainin,SoftwareType,DateUTC
2013-02-06 00:01:00,34.0,34.0,29.90,SSW,203,5.0,10.0,98,0.00,,,0.00,,2013-02-06 08:01:00,
2013-02-06 00:11:00,34.0,34.0,29.90,SSW,203,5.0,10.0,98,0.00,,,0.00,,2013-02-06 08:11:00,
2013-02-06 00:21:00,35.0,34.0,29.90,SSW,205,8.0,11.0,95,0.00,,,0.00,,2013-02-06 08:21:00,
2013-02-06 00:31:00,34.0,33.0,29.90,SSW,203,7.0,10.0,96,0.00,,,0.00,,2013-02-06 08:31:00,
2013-02-06 00:42:00,34.0,33.0,29.90,SSW,203,7.0,10.0,96,0.00,,,0.00,,2013-02-06 08:42:00,
2013-02-06 00:53:00,34.0,33.0,29.90,SSW,197,5.0,8.0,96,0.00,,,0.00,,2013-02-06 08:53:00,
2013-02-06 01:01:00,34.0,33.0,29.90,SSW,203,8.0,-999.0,96,-99.99,,,-99.99,,2013-02-06 09:01:00,
2013-02-06 01:11:00,34.0,33.0,29.90,SSW,203,8.0,-999.0,96,-99.99,,,-99.99,,2013-02-06 09:11:00,
2013-02-06 01:21:00,34.0,33.0,29.91,SSW,203,7.0,10.0,96,0.00,,,0.00,,2013-02-06 09:21:00,
2013-02-06 01:31:00,34.0,33.0,29.91,WSW,239,4.0,10.0,96,0.00,,,0.00,,2013-02-06 09:31:00,
2013-02-06 01:41:00,34.0,33.0,29.91,WSW,239,4.0,10.0,96,0.00,,,0.00,,2013-02-06 09:41:00,
2013-02-06 01:51:00,34.0,33.0,29.91,SW,218,10.0,13.0,95,0.00,,,0.00,,2013-02-06 09:51:00,
2013-02-06 02:01:00,35.0,34.0,29.92,SW,230,11.0,13.0,95,0.00,,,0.00,,2013-02-06 10:01:00,
2013-02-06 02:11:00,35.0,34.0,29.92,SW,230,11.0,13.0,95,0.00,,,0.00,,2013-02-06 10:11:00,
2013-02-06 02:21:00,35.0,34.0,29.92,SW,230,11.0,13.0,95,0.00,,,0.00,,2013-02-06 10:21:00,
2013-02-06 02:31:00,34.0,33.0,29.92,SSW,197,9.0,12.0,95,0.00,,,0.00,,2013-02-06 10:31:00,
2013-02-06 02:41:00,34.0,33.0,29.92,SSW,197,9.0,12.0,95,0.00,,,0.00,,2013-02-06 10:41:00,
2013-02-06 02:51:00,34.0,33.0,29.92,SSW,213,12.0,15.0,96,0.00,,,0.00,,2013-02-06 10:51:00,
2013-02-06 03:01:00,35.0,34.0,29.92,SSW,212,13.0,17.0,95,0.00,,,0.00,,2013-02-06 11:01:00,
2013-02-06 03:11:00,35.0,34.0,29.92,SSW,212,13.0,17.0,95,0.00,,,0.00,,2013-02-06 11:11:00,
2013-02-06 03:22:00,34.0,33.0,29.91,SW,226,15.0,19.0,95,0.00,,,0.00,,2013-02-06 11:22:00,
2013-02-06 03:32:00,34.0,33.0,29.92,SW,217,11.0,17.0,95,0.00,,,0.00,,2013-02-06 11:32:00,
2013-02-06 03:42:00,34.0,33.0,29.92,SW,217,11.0,17.0,95,0.00,,,0.00,,2013-02-06 11:42:00,
2013-02-06 03:52:00,34.0,33.0,29.92,SW,215,13.0,18.0,95,0.00,,,0.00,,2013-02-06 11:52:00,
2013-02-06 04:01:00,34.0,33.0,29.92,SW,224,12.0,21.0,95,0.00,,,0.00,,2013-02-06 12:01:00,
2013-02-06 04:12:00,34.0,33.0,29.92,SW,224,12.0,21.0,95,0.00,,,0.00,,2013-02-06 12:12:00,
2013-02-06 04:22:00,34.0,33.0,29.93,SW,229,9.0,15.0,95,0.00,,,0.00,,2013-02-06 12:22:00,
2013-02-06 04:32:00,34.0,33.0,29.93,SW,218,12.0,18.0,95,0.00,,,0.00,,2013-02-06 12:32:00,
2013-02-06 04:42:00,34.0,33.0,29.93,SW,218,12.0,18.0,95,0.00,,,0.00,,2013-02-06 12:42:00,
2013-02-06 04:52:00,33.0,32.0,29.93,SW,233,9.0,17.0,96,0.00,,,0.00,,2013-02-06 12:52:00,
2013-02-06 05:01:00,33.0,32.0,29.95,SW,219,4.0,8.0,95,0.00,,,0.00,,2013-02-06 13:01:00,
2013-02-06 05:11:00,33.0,32.0,29.95,SW,219,4.0,8.0,95,0.00,,,0.00,,2013-02-06 13:11:00,
2013-02-06 05:21:00,33.0,32.0,29.95,SW,221,7.0,10.0,96,0.00,,,0.00,,2013-02-06 13:21:00,
2013-02-06 05:31:00,33.0,32.0,29.95,SW,215,6.0,10.0,96,0.00,,,0.00,,2013-02-06 13:31:00,
2013-02-06 05:42:00,33.0,32.0,29.95,SW,215,6.0,10.0,96,0.00,,,0.00,,2013-02-06 13:42:00,
2013-02-06 05:52:00,33.0,32.0,29.95,WSW,253,2.0,8.0,96,0.00,,,0.00,,2013-02-06 13:52:00,
2013-02-06 06:01:00,33.0,32.0,29.96,SSW,198,3.0,5.0,96,0.00,,,0.00,,2013-02-06 14:01:00,
2013-02-06 06:11:00,33.0,32.0,29.96,SSW,198,3.0,5.0,96,0.00,,,0.00,,2013-02-06 14:11:00,
2013-02-06 06:21:00,32.0,31.0,29.96,SW,219,2.0,6.0,96,0.00,,,0.00,,2013-02-06 14:21:00,
2013-02-06 06:31:00,32.0,31.0,29.97,SSW,198,6.0,9.0,97,0.00,,,0.00,,2013-02-06 14:31:00,
2013-02-06 06:41:00,32.0,31.0,29.97,SSW,198,6.0,9.0,97,0.00,,,0.00,,2013-02-06 14:41:00,
2013-02-06 06:52:00,32.0,31.0,29.97,SSW,198,6.0,9.0,97,0.00,,,0.00,,2013-02-06 14:52:00,
2013-02-06 07:01:00,32.0,31.0,29.98,West,275,0.0,1.0,97,0.00,,,0.00,,2013-02-06 15:01:00,
2013-02-06 07:11:00,32.0,31.0,29.98,West,275,0.0,1.0,97,0.00,,,0.00,,2013-02-06 15:11:00,
2013-02-06 07:21:00,32.0,32.0,29.98,SW,215,3.0,5.0,98,0.00,,,0.00,,2013-02-06 15:21:00,
2013-02-06 07:31:00,32.0,32.0,29.98,WSW,239,2.0,5.0,98,0.00,,,0.00,,2013-02-06 15:31:00,
2013-02-06 07:41:00,32.0,32.0,29.98,WSW,239,2.0,5.0,98,0.00,,,0.00,,2013-02-06 15:41:00,
2013-02-06 07:51:00,32.0,32.0,29.98,WSW,238,1.0,6.0,98,0.00,,,0.00,,2013-02-06 15:51:00,
2013-02-06 08:01:00,33.0,32.0,29.99,SSW,197,1.0,6.0,98,0.00,,,0.00,,2013-02-06 16:01:00,
2013-02-06 08:11:00,33.0,32.0,29.99,SSW,197,1.0,6.0,98,0.00,,,0.00,,2013-02-06 16:11:00,
2013-02-06 08:21:00,33.0,32.0,30.00,WSW,246,5.0,8.0,98,0.00,,,0.00,,2013-02-06 16:21:00,
2013-02-06 08:32:00,33.0,32.0,30.01,SW,223,6.0,11.0,98,0.00,,,0.00,,2013-02-06 16:32:00,
2013-02-06 08:41:00,33.0,32.0,30.01,SW,223,6.0,11.0,98,0.00,,,0.00,,2013-02-06 16:41:00,
2013-02-06 08:51:00,33.0,32.0,30.02,SW,217,1.0,3.0,98,0.00,,,0.00,,2013-02-06 16:51:00,
2013-02-06 09:01:00,34.0,33.0,30.01,SW,228,3.0,7.0,97,0.00,,,0.00,,2013-02-06 17:01:00,
2013-02-06 09:11:00,34.0,33.0,30.01,SW,228,3.0,7.0,97,0.00,,,0.00,,2013-02-06 17:11:00,
2013-02-06 09:21:00,34.0,33.0,30.02,WSW,240,2.0,9.0,97,0.00,,,0.00,,2013-02-06 17:21:00,
2013-02-06 09:32:00,34.0,33.0,30.03,SSW,203,3.0,7.0,96,0.00,,,0.00,,2013-02-06 17:32:00,
2013-02-06 09:41:00,34.0,33.0,30.03,SSW,203,3.0,7.0,96,0.00,,,0.00,,2013-02-06 17:41:00,
2013-02-06 09:52:00,34.0,33.0,30.03,SW,219,7.0,9.0,96,0.00,,,0.00,,2013-02-06 17:52:00,
2013-02-06 10:01:00,34.0,33.0,30.03,SW,232,4.0,8.0,97,0.00,,,0.00,,2013-02-06 18:01:00,
2013-02-06 10:11:00,34.0,33.0,30.03,SW,232,4.0,8.0,97,0.00,,,0.00,,2013-02-06 18:11:00,
2013-02-06 10:22:00,34.0,33.0,30.04,SW,215,6.0,7.0,97,0.00,,,0.00,,2013-02-06 18:22:00,
2013-02-06 10:32:00,34.0,33.0,30.05,SW,219,7.0,10.0,96,0.00,,,0.00,,2013-02-06 18:32:00,
2013-02-06 10:41:00,34.0,33.0,30.05,SW,219,7.0,10.0,96,0.00,,,0.00,,2013-02-06 18:41:00,
2013-02-06 10:52:00,34.0,33.0,30.05,SSW,204,6.0,12.0,96,0.00,,,0.00,,2013-02-06 18:52:00,
2013-02-06 11:01:00,34.0,33.0,30.05,SSW,213,4.0,7.0,96,0.00,,,0.00,,2013-02-06 19:01:00,
2013-02-06 11:11:00,34.0,33.0,30.05,SSW,213,4.0,7.0,96,0.00,,,0.00,,2013-02-06 19:11:00,
2013-02-06 11:21:00,35.0,34.0,30.04,SSW,209,6.0,8.0,95,0.00,,,0.00,,2013-02-06 19:21:00,
2013-02-06 11:31:00,35.0,33.0,30.05,West,262,8.0,11.0,93,0.00,,,0.00,,2013-02-06 19:31:00,
2013-02-06 11:41:00,35.0,33.0,30.05,West,262,8.0,11.0,93,0.00,,,0.00,,2013-02-06 19:41:00,
2013-02-06 11:52:00,36.0,34.0,30.05,SSW,208,5.0,10.0,92,0.00,,,0.00,,2013-02-06 19:52:00,
2013-02-06 12:01:00,37.0,35.0,30.04,SW,225,2.0,4.0,91,0.00,,,0.00,,2013-02-06 20:01:00,
2013-02-06 12:11:00,37.0,35.0,30.04,SW,225,2.0,4.0,91,0.00,,,0.00,,2013-02-06 20:11:00,
2013-02-06 12:21:00,39.0,35.0,30.04,SW,221,3.0,4.0,87,0.00,,,0.00,,2013-02-06 20:21:00,
2013-02-06 12:31:00,38.0,34.0,30.04,SW,223,2.0,7.0,87,0.00,,,0.00,,2013-02-06 20:31:00,
2013-02-06 12:41:00,38.0,34.0,30.04,SW,223,2.0,7.0,87,0.00,,,0.00,,2013-02-06 20:41:00,
2013-02-06 12:52:00,38.0,34.0,30.05,SSW,204,5.0,9.0,86,0.00,,,0.00,,2013-02-06 20:52:00,
2013-02-06 13:01:00,38.0,34.0,30.05,SSW,204,7.0,10.0,87,0.00,,,0.00,,2013-02-06 21:01:00,
2013-02-06 13:11:00,38.0,34.0,30.05,SSW,204,7.0,10.0,87,0.00,,,0.00,,2013-02-06 21:11:00,
2013-02-06 13:21:00,38.0,34.0,30.04,SSW,209,5.0,8.0,87,0.00,,,0.00,,2013-02-06 21:21:00,
2013-02-06 13:31:00,37.0,34.0,30.04,SW,217,9.0,11.0,87,0.00,,,0.00,,2013-02-06 21:31:00,
2013-02-06 13:41:00,37.0,34.0,30.04,SW,217,9.0,11.0,87,0.00,,,0.00,,2013-02-06 21:41:00,
2013-02-06 13:51:00,38.0,34.0,30.04,SW,234,6.0,11.0,87,0.00,,,0.00,,2013-02-06 21:51:00,
2013-02-06 14:01:00,37.0,34.0,30.04,SSW,205,5.0,10.0,87,0.00,,,0.00,,2013-02-06 22:01:00,
2013-02-06 14:11:00,37.0,34.0,30.04,SSW,205,5.0,10.0,87,0.00,,,0.00,,2013-02-06 22:11:00,
2013-02-06 14:21:00,38.0,34.0,30.04,WNW,283,0.0,4.0,87,0.00,,,0.00,,2013-02-06 22:21:00,
2013-02-06 14:31:00,38.0,34.0,30.05,West,272,0.0,2.0,86,0.00,,,0.00,,2013-02-06 22:31:00,
2013-02-06 14:41:00,38.0,34.0,30.05,West,272,0.0,2.0,86,0.00,,,0.00,,2013-02-06 22:41:00,
2013-02-06 14:51:00,38.0,34.0,30.05,West,270,0.0,2.0,86,0.00,,,0.00,,2013-02-06 22:51:00,
2013-02-06 15:01:00,38.0,34.0,30.05,NW,317,0.0,1.0,86,0.00,,,0.00,,2013-02-06 23:01:00,
2013-02-06 15:11:00,38.0,34.0,30.05,NW,317,0.0,1.0,86,0.00,,,0.00,,2013-02-06 23:11:00,
2013-02-06 15:21:00,38.0,34.0,30.05,NW,317,1.0,1.0,86,0.00,,,0.00,,2013-02-06 23:21:00,
2013-02-06 15:31:00,38.0,34.0,30.05,NW,324,1.0,1.0,86,0.00,,,0.00,,2013-02-06 23:31:00,
2013-02-06 15:41:00,38.0,34.0,30.05,NW,324,1.0,1.0,86,0.00,,,0.00,,2013-02-06 23:41:00,
2013-02-06 15:52:00,37.0,34.0,30.05,NNW,344,0.0,2.0,87,0.00,,,0.00,,2013-02-06 23:52:00,
2013-02-06 16:01:00,37.0,34.0,30.04,NNW,345,0.0,1.0,88,0.00,,,0.00,,2013-02-07 00:01:00,
2013-02-06 16:11:00,37.0,34.0,30.04,NNW,345,0.0,1.0,88,0.00,,,0.00,,2013-02-07 00:11:00,
2013-02-06 16:21:00,37.0,34.0,30.04,NNW,343,0.0,1.0,88,0.00,,,0.00,,2013-02-07 00:21:00,
2013-02-06 16:31:00,37.0,34.0,30.04,NNW,343,0.0,1.0,88,0.00,,,0.00,,2013-02-07 00:31:00,
2013-02-06 16:41:00,37.0,34.0,30.04,NNW,343,0.0,1.0,88,0.00,,,0.00,,2013-02-07 00:41:00,
2013-02-06 16:51:00,37.0,34.0,30.04,NNW,343,0.0,1.0,89,0.00,,,0.00,,2013-02-07 00:51:00,
2013-02-06 17:01:00,36.0,33.0,30.04,NNW,330,0.0,1.0,89,0.00,,,0.00,,2013-02-07 01:01:00,
2013-02-06 17:11:00,36.0,33.0,30.04,NNW,330,0.0,1.0,89,0.00,,,0.00,,2013-02-07 01:11:00,
2013-02-06 17:21:00,36.0,33.0,30.04,NNW,330,0.0,1.0,90,0.00,,,0.00,,2013-02-07 01:21:00,
2013-02-06 17:31:00,35.0,33.0,30.04,NW,307,1.0,1.0,92,0.00,,,0.00,,2013-02-07 01:31:00,
2013-02-06 17:41:00,35.0,33.0,30.04,NW,307,1.0,1.0,92,0.00,,,0.00,,2013-02-07 01:41:00,
2013-02-06 17:52:00,35.0,33.0,30.04,NW,307,0.0,1.0,93,0.00,,,0.00,,2013-02-07 01:52:00,
2013-02-06 18:01:00,34.0,32.0,30.04,NW,308,0.0,1.0,94,0.00,,,0.00,,2013-02-07 02:01:00,
2013-02-06 18:11:00,34.0,32.0,30.04,NW,308,0.0,1.0,94,0.00,,,0.00,,2013-02-07 02:11:00,
2013-02-06 18:21:00,34.0,32.0,30.04,NW,308,0.0,1.0,94,0.00,,,0.00,,2013-02-07 02:21:00,
2013-02-06 18:31:00,33.0,32.0,30.03,NW,308,0.0,1.0,95,0.00,,,0.00,,2013-02-07 02:31:00,
2013-02-06 18:42:00,33.0,32.0,30.03,NW,308,0.0,1.0,95,0.00,,,0.00,,2013-02-07 02:42:00,
2013-02-06 18:52:00,33.0,32.0,30.03,NW,308,0.0,1.0,95,0.00,,,0.00,,2013-02-07 02:52:00,
2013-02-06 19:02:00,32.0,31.0,30.02,NW,307,0.0,1.0,97,0.00,,,0.00,,2013-02-07 03:02:00,
2013-02-06 19:11:00,32.0,31.0,30.02,NW,307,0.0,1.0,97,0.00,,,0.00,,2013-02-07 03:11:00,
2013-02-06 19:21:00,31.0,30.0,30.02,NNW,345,0.0,1.0,97,0.00,,,0.00,,2013-02-07 03:21:00,
2013-02-06 19:31:00,31.0,30.0,30.02,NNW,345,0.0,1.0,97,0.00,,,0.00,,2013-02-07 03:31:00,
2013-02-06 19:41:00,31.0,30.0,30.02,NNW,345,0.0,1.0,97,0.00,,,0.00,,2013-02-07 03:41:00,
2013-02-06 19:51:00,31.0,31.0,30.01,NNW,346,0.0,1.0,98,0.00,,,0.00,,2013-02-07 03:51:00,
2013-02-06 20:01:00,31.0,31.0,30.01,NW,317,0.0,1.0,99,0.00,,,0.00,,2013-02-07 04:01:00,
2013-02-06 20:11:00,31.0,31.0,30.01,NW,317,0.0,1.0,99,0.00,,,0.00,,2013-02-07 04:11:00,
2013-02-06 20:22:00,31.0,31.0,30.01,NW,319,0.0,2.0,99,0.00,,,0.00,,2013-02-07 04:22:00,
2013-02-06 20:31:00,31.0,31.0,30.01,NW,319,0.0,2.0,99,0.00,,,0.00,,2013-02-07 04:31:00,
2013-02-06 20:41:00,31.0,31.0,30.01,NW,319,0.0,2.0,99,0.00,,,0.00,,2013-02-07 04:41:00,
2013-02-06 20:52:00,30.0,30.0,30.01,NW,319,0.0,1.0,100,0.00,,,0.00,,2013-02-07 04:52:00,
2013-02-06 21:01:00,30.0,30.0,30.01,NW,319,0.0,1.0,100,0.00,,,0.00,,2013-02-07 05:01:00,
2013-02-06 21:11:00,30.0,30.0,30.01,NW,319,0.0,1.0,100,0.00,,,0.00,,2013-02-07 05:11:00,
2013-02-06 21:21:00,30.0,30.0,30.01,NW,319,0.0,1.0,100,0.00,,,0.00,,2013-02-07 05:21:00,
2013-02-06 21:32:00,30.0,30.0,30.01,NW,319,0.0,1.0,100,0.00,,,0.00,,2013-02-07 05:32:00,
2013-02-06 21:42:00,30.0,30.0,30.01,NW,319,0.0,1.0,100,0.00,,,0.00,,2013-02-07 05:42:00,
2013-02-06 21:52:00,30.0,30.0,30.00,NW,318,0.0,0.0,100,0.00,,,0.00,,2013-02-07 05:52:00,
2013-02-06 22:01:00,30.0,30.0,30.00,NW,317,0.0,1.0,100,0.00,,,0.00,,2013-02-07 06:01:00,
2013-02-06 22:11:00,30.0,30.0,30.00,NW,317,0.0,1.0,100,0.00,,,0.00,,2013-02-07 06:11:00,
2013-02-06 22:22:00,30.0,30.0,30.00,NW,319,0.0,0.0,100,0.00,,,0.00,,2013-02-07 06:22:00,
2013-02-06 22:31:00,30.0,30.0,29.99,NW,319,0.0,1.0,100,0.00,,,0.00,,2013-02-07 06:31:00,
2013-02-06 22:43:00,30.0,30.0,29.99,NW,319,0.0,1.0,100,0.00,,,0.00,,2013-02-07 06:43:00,
2013-02-06 22:52:00,30.0,30.0,29.99,NW,319,0.0,0.0,100,0.00,,,0.00,,2013-02-07 06:52:00,
2013-02-06 23:01:00,30.0,30.0,29.99,NW,319,0.0,0.0,100,0.00,,,0.00,,2013-02-07 07:01:00,
2013-02-06 23:11:00,30.0,30.0,29.99,NW,319,0.0,0.0,100,0.00,,,0.00,,2013-02-07 07:11:00,
2013-02-06 23:21:00,30.0,30.0,30.00,NW,317,0.0,1.0,100,0.00,,,0.00,,2013-02-07 07:21:00,
2013-02-06 23:31:00,31.0,31.0,30.00,NW,317,0.0,1.0,100,0.00,,,0.00,,2013-02-07 07:31:00,
2013-02-06 23:41:00,31.0,31.0,30.00,NW,317,0.0,1.0,100,0.00,,,0.00,,2013-02-07 07:41:00,
2013-02-06 23:52:00,31.0,31.0,29.99,NW,319,0.0,1.0,100,0.00,,,0.00,,2013-02-07 07:52:00,